Location: Auttagershofen
(48.1940°N, 10.0237°E)
Time: 23:31:20
(UTC+00:00)

Cosmos 2074 Rocket - Visible Passes

Search period start: 18 April 2026 00:00
Search period end: 28 April 2026 00:00
Orbit: 967 x 985 km, 82.9° (Epoch: 18 April)

Date Brightness Start Highest point End Pass type
(mag) Time Alt. Az. Time Alt. Az. Time Alt. Az.
18 Apr 7.1 03:27:16 10° NNE 03:31:25 18° ENE 03:35:33 10° ESE visible
18 Apr 5.0 18:45:11 10° SSW 18:51:16 54° WNW 18:57:25 10° N visible
18 Apr 7.4 20:37:15 10° WNW 20:38:16 10° NW 20:39:17 10° NW visible
19 Apr 6.0 19:11:29 10° SW 19:17:01 32° WNW 19:22:37 10° N visible
20 Apr 6.8 19:38:29 10° WSW 19:42:58 20° WNW 19:47:28 10° NNW visible
21 Apr 7.2 02:58:38 10° NNE 03:02:20 16° ENE 03:05:59 10° E visible
21 Apr 7.3 20:06:48 10° WNW 20:09:07 12° NW 20:11:27 10° NNW visible
22 Apr 6.6 03:23:13 10° N 03:28:23 26° ENE 03:33:30 10° ESE visible
22 Apr 5.9 18:42:16 10° SW 18:48:00 37° WNW 18:53:47 10° N visible
23 Apr 6.8 19:09:04 10° WSW 19:13:53 23° WNW 19:18:45 10° NNW visible
24 Apr 7.2 02:30:06 10° NNE 02:33:13 14° ENE 02:36:18 10° E visible
24 Apr 7.3 19:36:54 10° W 19:39:59 14° WNW 19:43:06 10° NNW visible
25 Apr 6.7 02:54:27 10° NNE 02:59:19 23° ENE 03:04:09 10° ESE visible
26 Apr 5.8 03:19:24 10° N 03:25:13 37° ENE 03:30:58 10° SE visible
27 Apr 7.2 02:01:44 10° NNE 02:04:05 12° NE 02:06:25 10° ENE visible
27 Apr 7.3 19:07:12 10° W 19:10:52 16° WNW 19:14:34 10° NNW visible
